QPF
0.00 0.00 0.00 0.00 0.00 0.00 0.00 0.00 0.00 0.00 0.00 0.00 0.00 0.00 0.00 0.00 0.00 0.00 0.00 0.00 0.00 0.00 0.00 0.00 0.00 0.00 0.00 0.00 0.00 0.00 0.00 0.00 0.00 0.00 0.00 0.00 0.00 0.00 0.00 0.00 0.00 0.00 0.00 0.00
0.00 0.00 0.00 0.00 0.00 0.00 0.00 0.00 0.00 0.00 0.00 0.00 0.00 0.00 0.00 0.00 0.00 0.00 0.00 0.00 0.00 0.00 0.00 0.00 0.00 0.00 0.00 0.00 0.00 0.00 0.00 0.00 0.00 0.00 0.00 0.00 0.00 0.00 0.00 0.00 0.00 0.00 0.00 0.06
0.00 0.00 0.00 0.00 0.00 0.00 0.00 0.00 0.00 0.00 0.00 0.00 0.00 0.00 0.00 0.00 0.00 0.00 0.00 0.00 0.00 0.00 0.00 0.00 0.00 0.00 0.00 0.00 0.00 0.00 0.00 0.00 0.00 0.00 0.00 0.00 0.00 0.00 0.00 0.01 0.00 0.00 0.02 0.25
0.00 0.00 0.00 0.00 0.00 0.00 0.00 0.00 0.00 0.00 0.00 0.00 0.00 0.00 0.00 0.00 0.00 0.00 0.00 0.00 0.00 0.00 0.00 0.00 0.00 0.00 0.00 0.00 0.00 0.00 0.00 0.00 0.00 0.00 0.00 0.00 0.00 0.01 0.02 0.05 0.00 0.00 0.01 0.01
0.00 0.00 0.00 0.00 0.00 0.00 0.00 0.00 0.00 0.00 0.00 0.00 0.00 0.00 0.00 0.00 0.00 0.00 0.00 0.00 0.00 0.00 0.00 0.00 0.00 0.00 0.00 0.00 0.00 0.00 0.00 0.00 0.00 0.00 0.00 0.00 0.00 0.00 0.00 0.00 0.00 0.00 0.00 0.03
0.00 0.00 0.00 0.00 0.00 0.00 0.00 0.00 0.00 0.00 0.00 0.00 0.00 0.00 0.00 0.00 0.00 0.00 0.00 0.00 0.00 0.00 0.00 0.00 0.00 0.00 0.00 0.00 0.00 0.00 0.00 0.00 0.00 0.00 0.00 0.00 0.00 0.00 0.00 0.00 0.00 0.00 0.00 0.01
0.00 0.00 0.00 0.00 0.00 0.00 0.00 0.00 0.00 0.00 0.00 0.00 0.00 0.00 0.00 0.00 0.00 0.00 0.00 0.00 0.00 0.00 0.00 0.00 0.00 0.00 0.00 0.00 0.00 0.00 0.00 0.00 0.00 0.00 0.00 0.00 0.00 0.00 0.00 0.00 0.00 0.01 0.00 0.01
0.00 0.00 0.00 0.00 0.00 0.00 0.00 0.00 0.00 0.00 0.00 0.00 0.00 0.00 0.00 0.00 0.00 0.00 0.00 0.00 0.00 0.00 0.00 0.00 0.00 0.00 0.00 0.00 0.00 0.00 0.00 0.00 0.00 0.00 0.00 0.00 0.00 0.00 0.00 0.00 0.00 0.00 0.00 0.00
0.00 0.00 0.00 0.00 0.00 0.00 0.00 0.00 0.00 0.00 0.00 0.00 0.00 0.00 0.00 0.00 0.00 0.00 0.00 0.00 0.00 0.00 0.00 0.00 0.00 0.00 0.00 0.00 0.00 0.00 0.00 0.00 0.00 0.00 0.00 0.00 0.00 0.00 0.00 0.00 0.00 0.00 0.00 0.00
0.00 0.00 0.00 0.00 0.00 0.00 0.00 0.00 0.00 0.00 0.00 0.00 0.00 0.00 0.00 0.00 0.00 0.00 0.00 0.00 0.00 0.00 0.00 0.00 0.00 0.00 0.00 0.00 0.00 0.00 0.00 0.00 0.00 0.00 0.00 0.00 0.00 0.00 0.00 0.00 0.00 0.00 0.00 0.00
0.00 0.00 0.00 0.00 0.00 0.00 0.00 0.00 0.00 0.00 0.00 0.00 0.00 0.00 0.00 0.00 0.00 0.00 0.00 0.00 0.00 0.00 0.00 0.00 0.00 0.00 0.00 0.00 0.00 0.00 0.00 0.00 0.00 0.00 0.00 0.00 0.00 0.00 0.00 0.00 0.00 0.00 0.00 0.00
0.00 0.00 0.00 0.00 0.00 0.00 0.00 0.00 0.00 0.00 0.00 0.00 0.00 0.00 0.00 0.00 0.00 0.00 0.00 0.00 0.00 0.00 0.00 0.00 0.00 0.00 0.00 0.00 0.00 0.00 0.00 0.00 0.00 0.00 0.00 0.00 0.00 0.00 0.00 0.00 0.00 0.00 0.00 0.00
0.00 0.00 0.00 0.00 0.00 0.00 0.00 0.00 0.00 0.00 0.00 0.00 0.00 0.00 0.00 0.00 0.00 0.00 0.00 0.00 0.00 0.00 0.00 0.00 0.00 0.00 0.00 0.00 0.00 0.00 0.00 0.00 0.00 0.00 0.00 0.00 0.00 0.00 0.00 0.00 0.00 0.00 0.00 0.00
0.00 0.00 0.00 0.00 0.00 0.00 0.00 0.00 0.00 0.00 0.00 0.00 0.00 0.00 0.00 0.00 0.00 0.00 0.00 0.00 0.00 0.00 0.00 0.00 0.00 0.00 0.00 0.00 0.00 0.00 0.00 0.01 0.00 0.00 0.00 0.00 0.00 0.00 0.00 0.00 0.00 0.00 0.00 0.00
0.00 0.00 0.00 0.00 0.00 0.00 0.00 0.00 0.00 0.00 0.00 0.00 0.00 0.00 0.00 0.00 0.00 0.00 0.00 0.00 0.00 0.00 0.00 0.00 0.00 0.00 0.01 0.01 0.02 0.02 0.00 0.00 0.00 0.00 0.00 0.00 0.00 0.00 0.00 0.00 0.00 0.00 0.00 0.00
0.00 0.00 0.00 0.00 0.00 0.00 0.00 0.00 0.00 0.00 0.00 0.00 0.00 0.00 0.00 0.00 0.00 0.00 0.00 0.00 0.00 0.00 0.00 0.00 0.02 0.01 0.02 0.02 0.01 0.00 0.00 0.00 0.00 0.00 0.00 0.00 0.00 0.00 0.00 0.00 0.00 0.00 0.00 0.00
0.00 0.00 0.00 0.00 0.00 0.00 0.00 0.00 0.00 0.00 0.00 0.00 0.00 0.00 0.00 0.00 0.00 0.00 0.00 0.00 0.00 0.00 0.00 0.00 0.00 0.00 0.00 0.00 0.00 0.00 0.00 0.00 0.00 0.00 0.00 0.00 0.00 0.00 0.00 0.00 0.00 0.00 0.00 0.00
0.00 0.00 0.00 0.00 0.00 0.00 0.00 0.00 0.00 0.00 0.00 0.00 0.00 0.00 0.00 0.00 0.00 0.00 0.00 0.00 0.00 0.00 0.00 0.00 0.00 0.00 0.00 0.00 0.00 0.00 0.00 0.00 0.00 0.00 0.00 0.00 0.00 0.00 0.00 0.00 0.00 0.00 0.01 0.02
0.00 0.00 0.00 0.00 0.00 0.00 0.00 0.00 0.00 0.00 0.00 0.00 0.00 0.00 0.00 0.00 0.00 0.00 0.00 0.00 0.00 0.00 0.00 0.00 0.00 0.00 0.00 0.00 0.00 0.00 0.00 0.00 0.00 0.00 0.00 0.00 0.00 0.00 0.00 0.00 0.00 0.00 0.02 0.02
0.00 0.00 0.00 0.00 0.00 0.00 0.00 0.00 0.00 0.00 0.00 0.00 0.00 0.00 0.00 0.00 0.00 0.00 0.00 0.00 0.00 0.00 0.00 0.00 0.00 0.00 0.00 0.00 0.00 0.00 0.00 0.00 0.00 0.00 0.00 0.00 0.00 0.00 0.01 0.01 0.01 0.01 0.01 0.02
0.00 0.00 0.00 0.00 0.00 0.00 0.00 0.00 0.00 0.00 0.00 0.00 0.00 0.00 0.00 0.00 0.00 0.00 0.00 0.00 0.00 0.00 0.00 0.00 0.00 0.00 0.00 0.00 0.00 0.00 0.00 0.00 0.00 0.00 0.00 0.00 0.01 0.02 0.03 0.02 0.01 0.02 0.02 0.02
0.00 0.00 0.00 0.00 0.00 0.00 0.00 0.00 0.00 0.00 0.00 0.00 0.00 0.00 0.00 0.00 0.00 0.00 0.00 0.00 0.00 0.00 0.00 0.00 0.00 0.00 0.00 0.00 0.00 0.00 0.00 0.00 0.00 0.00 0.00 0.01 0.01 0.03 0.03 0.03 0.02 0.01 0.02 0.02
0.00 0.00 0.00 0.00 0.00 0.00 0.00 0.00 0.00 0.00 0.00 0.00 0.00 0.00 0.00 0.00 0.00 0.00 0.00 0.00 0.00 0.00 0.00 0.00 0.00 0.00 0.00 0.00 0.00 0.00 0.00 0.00 0.00 0.00 0.00 0.01 0.02 0.02 0.04 0.05 0.04 0.03 0.03 0.05
0.00 0.00 0.00 0.00 0.00 0.00 0.00 0.00 0.00 0.00 0.00 0.00 0.00 0.00 0.00 0.00 0.00 0.00 0.00 0.00 0.00 0.00 0.00 0.00 0.00 0.00 0.00 0.00 0.00 0.00 0.01 0.01 0.00 0.01 0.00 0.01 0.03 0.03 0.07 0.07 0.06 0.06 0.04 0.05
0.00 0.00 0.00 0.00 0.00 0.00 0.00 0.00 0.00 0.00 0.00 0.00 0.00 0.00 0.00 0.00 0.00 0.00 0.00 0.00 0.00 0.00 0.00 0.00 0.00 0.00 0.00 0.00 0.00 0.00 0.00 0.00 0.00 0.00 0.00 0.00 0.01 0.04 0.04 0.03 0.02 0.01 0.01 0.03
0.00 0.00 0.00 0.00 0.00 0.00 0.00 0.00 0.00 0.00 0.00 0.00 0.00 0.00 0.00 0.00 0.00 0.00 0.00 0.00 0.00 0.00 0.00 0.00 0.00 0.00 0.00 0.00 0.00 0.00 0.00 0.00 0.00 0.00 0.00 0.01 0.03 0.02 0.01 0.01 0.00 0.01 0.02 0.05
MSLP
1006.06 1005.22 1004.07 1003.49 1003.55 1003.70 1003.43 1002.63 1002.44 1003.06 1003.73 1003.78 1003.45 1004.69 1006.22 1007.24 1007.70 1008.36 1009.11 1009.98 1010.69 1011.38 1012.14 1013.00 1013.86 1014.53 1015.14 1015.90 1016.63 1017.17 1017.64 1017.94 1018.34 1018.48 1018.43 1018.34 1018.08 1018.05 1018.01 1017.95 1018.16 1018.50 1018.64 1018.75
1005.64 1004.44 1003.59 1004.08 1004.20 1004.01 1003.59 1002.78 1002.66 1003.61 1003.95 1003.91 1003.89 1004.51 1005.65 1006.72 1007.03 1007.59 1008.39 1009.11 1009.69 1010.48 1011.39 1012.39 1013.29 1014.04 1014.71 1015.29 1016.04 1016.71 1017.12 1017.58 1017.96 1017.90 1017.98 1017.87 1017.77 1017.55 1017.45 1017.42 1017.67 1017.92 1018.04 1018.16
1003.92 1003.44 1004.18 1004.14 1003.90 1003.52 1002.87 1002.46 1002.77 1002.71 1003.81 1003.80 1003.86 1004.41 1005.31 1006.05 1006.73 1007.16 1007.73 1008.44 1008.99 1009.54 1010.58 1011.72 1012.73 1013.46 1014.05 1014.63 1015.28 1015.85 1016.51 1016.99 1017.44 1017.67 1017.77 1017.94 1018.01 1017.84 1017.54 1017.48 1017.28 1017.09 1017.37 1017.77
1003.91 1003.90 1004.04 1003.79 1003.19 1002.98 1002.21 1003.14 1003.16 1003.17 1003.32 1002.78 1003.79 1002.69 1004.06 1004.75 1005.76 1006.49 1007.03 1007.70 1008.29 1009.02 1009.87 1010.82 1011.84 1012.66 1013.24 1013.74 1014.26 1015.10 1015.85 1016.51 1016.99 1017.43 1017.46 1017.46 1017.11 1016.87 1016.56 1017.03 1017.20 1017.41 1017.13 1017.10
1003.14 1003.43 1003.45 1003.00 1002.64 1002.93 1002.75 1003.44 1003.39 1003.41 1003.08 1003.17 1003.56 1003.15 1002.65 1004.04 1004.49 1004.90 1005.75 1006.59 1007.47 1008.43 1009.18 1009.93 1010.88 1011.64 1012.31 1012.86 1013.50 1014.40 1015.30 1016.01 1016.56 1016.91 1017.20 1016.92 1016.90 1016.59 1016.50 1016.90 1016.93 1016.86 1016.80 1016.84
1003.00 1003.50 1003.07 1002.36 1002.96 1003.14 1003.59 1003.76 1003.87 1003.82 1003.13 1003.15 1002.90 1003.43 1002.43 1002.81 1003.61 1003.57 1004.38 1005.56 1006.67 1007.59 1008.53 1009.22 1010.12 1010.93 1011.68 1012.34 1013.00 1013.71 1014.77 1015.51 1015.99 1016.35 1016.57 1016.74 1016.62 1016.62 1016.46 1016.22 1016.32 1016.09 1015.85 1015.75
1002.91 1002.80 1002.78 1002.88 1002.86 1003.47 1003.38 1002.90 1002.55 1002.96 1002.85 1002.75 1003.72 1003.76 1002.83 1003.30 1004.01 1004.29 1003.84 1004.57 1005.87 1006.87 1007.83 1008.56 1009.34 1010.31 1011.12 1011.79 1012.61 1013.44 1014.27 1014.94 1015.38 1015.75 1015.97 1016.19 1016.41 1016.46 1016.44 1016.46 1015.89 1015.91 1015.47 1014.91
1001.68 1001.84 1002.22 1002.36 1001.98 1002.33 1002.69 1002.12 1001.57 1002.07 1002.18 1002.64 1004.57 1003.51 1003.12 1004.17 1004.53 1004.69 1004.61 1004.13 1005.09 1006.19 1007.10 1007.85 1008.55 1009.60 1010.45 1011.25 1012.24 1013.01 1013.72 1014.31 1014.72 1015.02 1015.39 1015.73 1015.98 1015.94 1015.73 1015.67 1015.72 1015.58 1015.39 1015.23
1000.96 1000.85 1001.70 1002.21 1002.17 1002.30 1002.65 1002.73 1002.47 1002.65 1003.40 1003.26 1003.01 1003.67 1003.68 1004.10 1004.16 1004.48 1004.36 1004.25 1004.66 1005.74 1006.39 1007.35 1008.08 1008.87 1009.81 1010.71 1011.65 1012.33 1013.07 1013.67 1014.05 1014.44 1014.92 1015.35 1015.59 1015.65 1015.30 1015.61 1015.72 1015.34 1015.54 1015.23
1000.87 1000.88 1001.48 1002.68 1002.80 1003.12 1002.60 1002.51 1002.79 1002.69 1002.65 1002.77 1003.07 1003.64 1003.03 1003.70 1003.87 1004.39 1004.53 1004.59 1005.10 1005.69 1006.27 1007.08 1007.93 1008.76 1009.50 1010.34 1011.16 1011.86 1012.53 1013.03 1013.41 1013.89 1014.34 1014.58 1014.85 1015.15 1015.44 1015.59 1015.61 1015.61 1015.60 1015.58
1001.14 1001.26 1001.57 1002.61 1002.10 1001.63 1002.86 1002.49 1002.46 1002.24 1003.11 1002.49 1002.75 1002.73 1003.99 1004.14 1004.22 1004.34 1004.64 1004.84 1005.20 1005.74 1006.25 1007.01 1007.74 1008.72 1009.60 1010.26 1010.92 1011.49 1012.11 1012.65 1013.11 1013.52 1013.86 1014.29 1014.51 1014.91 1015.14 1015.28 1015.37 1015.50 1015.47 1015.39
1001.25 1001.09 1000.81 1001.34 1002.23 1002.38 1001.43 1001.44 1002.08 1001.99 1003.09 1003.30 1003.54 1003.17 1003.73 1004.30 1004.61 1004.78 1004.74 1005.14 1005.44 1005.96 1006.55 1007.29 1007.93 1008.99 1009.92 1010.26 1010.82 1011.39 1011.94 1012.43 1012.78 1013.28 1013.72 1014.08 1014.36 1014.58 1014.73 1014.95 1015.18 1015.30 1015.25 1015.12
1000.91 1001.08 1000.80 1001.71 1002.45 1002.68 1001.94 1001.96 1002.03 1002.20 1002.94 1002.93 1003.13 1002.97 1004.27 1004.65 1004.99 1005.33 1005.31 1005.34 1006.02 1006.48 1007.10 1007.84 1008.76 1009.59 1010.05 1010.55 1011.04 1011.56 1012.21 1012.41 1012.81 1013.36 1013.52 1013.77 1014.10 1014.32 1014.53 1014.79 1014.98 1015.02 1014.83 1014.56
1001.05 1000.42 1000.27 999.87 1000.31 1000.77 1001.62 1002.00 1002.25 1002.30 1002.27 1002.17 1002.90 1003.06 1003.86 1004.71 1005.25 1005.57 1006.06 1006.35 1006.48 1007.39 1007.98 1008.50 1009.47 1010.10 1010.57 1011.10 1011.73 1012.13 1012.41 1012.75 1013.04 1013.30 1013.53 1013.84 1014.00 1014.20 1014.34 1014.49 1014.53 1014.38 1014.21 1013.92
1000.72 1000.31 1000.71 1000.20 1000.45 1000.42 1000.92 1001.29 1002.02 1002.13 1002.25 1002.29 1002.50 1003.34 1004.23 1005.34 1006.16 1006.64 1006.93 1006.93 1007.30 1007.67 1008.21 1008.88 1009.85 1010.53 1011.04 1011.69 1012.19 1012.65 1012.77 1013.06 1013.26 1013.52 1013.69 1013.82 1014.03 1014.12 1014.20 1014.09 1013.89 1013.74 1013.55 1013.12
1000.69 1000.66 1000.88 1000.65 1001.18 1001.09 1000.94 1001.15 1001.76 1002.14 1002.29 1002.80 1003.40 1003.90 1005.02 1006.13 1006.47 1006.98 1007.37 1007.73 1007.95 1008.29 1008.99 1009.84 1010.48 1011.14 1011.71 1012.19 1012.57 1012.86 1013.16 1013.54 1013.87 1013.91 1013.86 1013.86 1013.83 1013.80 1013.73 1013.56 1013.33 1013.05 1012.73 1012.38
1000.70 1000.72 1001.21 1000.68 1001.59 1001.55 1001.23 1001.17 1001.59 1002.05 1002.80 1003.00 1003.50 1004.32 1005.62 1006.30 1006.95 1007.40 1007.67 1008.16 1008.60 1009.07 1009.80 1010.61 1011.15 1011.65 1012.00 1012.44 1013.17 1013.51 1013.77 1013.94 1013.84 1013.74 1013.66 1013.55 1013.38 1013.24 1013.14 1012.95 1012.70 1012.25 1011.90 1011.64
1000.27 1000.93 1000.90 1000.41 1002.05 1001.78 1001.19 1001.56 1001.96 1002.41 1003.26 1003.73 1004.55 1005.38 1006.55 1007.29 1007.90 1008.37 1008.60 1008.53 1009.18 1009.85 1010.43 1010.96 1011.46 1012.19 1012.94 1013.42 1013.77 1013.96 1013.93 1013.86 1013.77 1013.61 1013.39 1013.12 1012.88 1012.67 1012.48 1012.41 1012.08 1011.68 1011.44 1011.12
1000.32 1000.43 1000.77 1001.41 1001.58 1001.68 1002.67 1002.99 1002.93 1003.00 1003.83 1004.34 1005.07 1006.17 1006.98 1007.73 1008.20 1009.05 1009.51 1009.61 1010.09 1010.78 1011.47 1012.13 1012.60 1013.09 1013.52 1013.82 1014.12 1014.24 1014.16 1013.92 1013.57 1013.20 1012.94 1012.73 1012.52 1012.28 1012.14 1011.83 1011.49 1011.30 1011.01 1010.61
1000.59 1000.90 1000.45 1001.05 1000.72 1001.15 1001.21 1002.89 1003.58 1003.90 1003.83 1004.66 1005.52 1006.35 1006.97 1007.77 1007.69 1009.06 1010.25 1010.80 1011.48 1012.05 1012.56 1012.90 1013.22 1013.51 1013.96 1014.36 1014.35 1013.94 1013.59 1013.49 1013.34 1013.30 1013.13 1012.84 1012.42 1012.15 1011.81 1011.51 1011.19 1011.09 1010.68 1010.28
1000.62 1000.49 1000.38 1000.95 1001.30 1002.19 1003.46 1004.06 1004.41 1004.66 1004.83 1004.92 1005.62 1006.45 1007.17 1007.91 1009.03 1009.97 1010.86 1011.52 1012.14 1012.67 1013.25 1013.41 1013.54 1013.73 1014.05 1014.18 1014.29 1014.17 1014.09 1013.82 1013.81 1013.51 1013.14 1012.73 1012.34 1011.99 1011.59 1011.16 1010.89 1010.33 1010.25 1009.87
1000.21 1000.66 1000.79 1001.33 1002.21 1002.88 1004.15 1004.93 1004.88 1005.57 1005.79 1005.69 1006.26 1007.05 1007.96 1009.05 1009.87 1010.62 1011.42 1012.06 1012.66 1013.19 1013.57 1013.77 1013.77 1014.01 1014.30 1014.55 1014.62 1014.52 1014.30 1014.29 1014.02 1013.62 1013.12 1012.56 1012.01 1011.62 1011.21 1010.75 1010.61 1010.33 1009.68 1009.29
1001.25 1001.00 1000.90 1003.10 1002.85 1004.50 1004.97 1005.38 1006.21 1006.32 1006.27 1006.54 1007.01 1007.75 1008.59 1009.38 1010.17 1011.10 1011.93 1012.57 1013.20 1013.66 1013.98 1014.23 1014.34 1014.44 1014.67 1014.84 1014.85 1014.56 1014.57 1014.47 1014.19 1013.64 1012.98 1012.37 1011.72 1011.24 1010.78 1010.62 1010.16 1009.71 1009.28 1008.98
1002.31 1002.55 1002.16 1003.45 1004.87 1005.36 1005.95 1006.53 1006.71 1006.78 1006.98 1007.29 1007.97 1008.54 1009.09 1009.98 1010.89 1011.80 1012.54 1013.20 1013.82 1014.33 1014.57 1014.73 1014.80 1014.97 1015.05 1015.33 1015.29 1015.24 1015.12 1015.14 1014.66 1013.98 1013.22 1012.40 1011.71 1011.10 1010.45 1010.12 1009.88 1009.67 1009.31 1009.06
1001.84 1002.71 1002.86 1004.16 1005.29 1006.11 1006.65 1006.94 1007.33 1007.80 1008.25 1008.65 1009.11 1009.61 1010.24 1010.98 1011.85 1012.57 1013.43 1014.12 1014.55 1014.92 1015.34 1015.55 1016.14 1016.13 1016.17 1016.15 1015.72 1015.41 1015.33 1015.37 1014.72 1014.04 1013.18 1012.32 1011.62 1010.77 1009.88 1009.42 1009.00 1009.36 1009.19 1009.09
1002.15 1002.41 1002.33 1002.62 1004.67 1005.09 1006.71 1007.64 1007.95 1008.40 1008.92 1009.45 1010.03 1010.86 1011.53 1012.03 1012.76 1013.34 1014.12 1014.90 1015.50 1015.94 1016.20 1016.14 1016.25 1016.26 1016.17 1016.01 1015.76 1015.57 1015.80 1015.63 1014.93 1013.99 1012.85 1012.05 1011.31 1010.11 1009.57 1009.25 1008.68 1008.42 1008.71 1008.33
Thickness
5836 5825 5822 5840 5845 5841 5838 5842 5841 5846 5853 5845 5852 5839 5832 5835 5835 5827 5824 5819 5814 5812 5814 5811 5805 5801 5796 5790 5785 5781 5778 5777 5773 5770 5769 5769 5769 5771 5772 5771 5770 5767 5765 5764
5822 5817 5847 5845 5841 5834 5834 5836 5837 5840 5847 5845 5844 5836 5840 5836 5837 5836 5830 5826 5824 5821 5818 5813 5808 5804 5798 5794 5789 5785 5782 5780 5776 5776 5774 5774 5773 5775 5775 5774 5772 5770 5768 5766
5826 5840 5844 5836 5834 5830 5840 5840 5834 5839 5840 5850 5842 5826 5828 5839 5840 5842 5840 5837 5834 5829 5821 5816 5811 5806 5804 5799 5795 5792 5788 5785 5781 5778 5776 5773 5772 5772 5773 5773 5774 5774 5772 5768
5831 5845 5833 5831 5833 5843 5835 5845 5841 5836 5830 5821 5843 5818 5832 5842 5834 5836 5837 5836 5835 5834 5831 5824 5817 5812 5809 5807 5805 5799 5794 5789 5785 5780 5777 5774 5774 5772 5779 5775 5773 5770 5771 5770
5829 5830 5828 5828 5837 5847 5834 5845 5838 5835 5833 5830 5824 5820 5844 5845 5833 5841 5844 5843 5840 5837 5834 5829 5824 5820 5818 5815 5810 5804 5797 5791 5786 5782 5778 5778 5774 5777 5778 5773 5771 5771 5769 5767
5837 5849 5845 5847 5847 5846 5843 5831 5829 5830 5834 5801 5829 5817 5831 5840 5839 5852 5855 5850 5845 5841 5836 5835 5832 5827 5821 5818 5811 5805 5795 5790 5787 5784 5781 5776 5774 5772 5771 5773 5770 5771 5773 5772
5825 5830 5845 5848 5829 5836 5834 5825 5803 5790 5797 5800 5821 5809 5828 5846 5845 5846 5854 5854 5849 5845 5838 5834 5830 5824 5820 5817 5813 5807 5799 5791 5789 5785 5782 5778 5773 5770 5767 5766 5769 5766 5769 5772
5808 5798 5830 5847 5840 5825 5826 5835 5819 5776 5793 5807 5805 5796 5823 5841 5846 5848 5852 5862 5857 5848 5843 5837 5834 5828 5822 5816 5809 5804 5799 5793 5791 5787 5783 5780 5776 5774 5772 5770 5766 5765 5764 5764
5812 5816 5843 5843 5847 5843 5820 5810 5839 5810 5811 5799 5816 5816 5835 5840 5840 5841 5846 5853 5852 5846 5845 5838 5835 5831 5824 5816 5809 5804 5797 5792 5789 5786 5781 5776 5773 5770 5771 5766 5762 5763 5758 5757
5828 5806 5833 5826 5837 5832 5829 5842 5804 5813 5776 5773 5796 5793 5807 5819 5828 5832 5835 5840 5842 5844 5843 5838 5832 5827 5824 5818 5812 5806 5800 5792 5788 5783 5779 5774 5770 5766 5761 5758 5754 5752 5750 5747
5830 5818 5811 5818 5816 5821 5811 5811 5821 5826 5806 5792 5780 5799 5823 5819 5826 5826 5831 5837 5838 5838 5838 5834 5831 5826 5819 5815 5810 5804 5797 5789 5783 5778 5773 5768 5764 5759 5755 5750 5747 5742 5740 5737
5828 5821 5803 5812 5823 5832 5839 5829 5822 5802 5782 5799 5792 5797 5835 5828 5827 5828 5831 5832 5836 5836 5833 5829 5825 5818 5809 5806 5801 5795 5790 5783 5779 5773 5766 5761 5756 5752 5747 5742 5738 5734 5730 5728
5824 5806 5788 5786 5804 5814 5814 5822 5826 5823 5811 5790 5783 5802 5824 5823 5821 5821 5822 5828 5826 5826 5823 5819 5812 5805 5801 5797 5792 5787 5779 5775 5770 5763 5759 5754 5748 5743 5738 5732 5728 5724 5720 5718
5822 5815 5805 5799 5807 5823 5800 5807 5815 5812 5796 5802 5795 5805 5809 5811 5810 5815 5813 5815 5818 5810 5808 5806 5797 5793 5790 5786 5778 5774 5770 5765 5759 5754 5749 5742 5736 5731 5726 5722 5718 5714 5710 5707
5818 5795 5805 5819 5820 5823 5816 5811 5807 5801 5808 5795 5808 5798 5803 5802 5798 5799 5803 5806 5803 5801 5799 5795 5786 5782 5779 5771 5766 5761 5757 5754 5750 5743 5736 5729 5724 5719 5714 5710 5707 5702 5697 5695
5814 5789 5800 5797 5807 5810 5804 5812 5806 5805 5806 5802 5798 5791 5806 5800 5800 5794 5792 5791 5789 5789 5786 5780 5776 5770 5763 5757 5752 5750 5745 5738 5733 5725 5720 5717 5713 5707 5701 5698 5693 5688 5685 5681
5796 5791 5782 5778 5792 5794 5778 5799 5802 5802 5802 5800 5779 5789 5794 5788 5784 5783 5784 5781 5777 5775 5770 5764 5760 5756 5753 5748 5740 5732 5728 5723 5719 5715 5711 5706 5702 5696 5690 5686 5680 5677 5673 5668
5792 5784 5792 5788 5772 5743 5794 5813 5812 5798 5793 5796 5787 5783 5777 5773 5773 5773 5774 5774 5767 5762 5758 5754 5751 5744 5735 5731 5725 5721 5718 5713 5709 5704 5701 5697 5691 5685 5680 5673 5668 5665 5659 5654
5802 5793 5773 5756 5763 5777 5771 5780 5784 5780 5771 5789 5778 5771 5769 5766 5765 5755 5761 5763 5757 5751 5745 5739 5734 5728 5723 5717 5712 5706 5702 5701 5698 5695 5691 5686 5680 5674 5668 5664 5659 5653 5647 5644
5790 5788 5786 5771 5764 5753 5790 5787 5794 5788 5756 5781 5775 5765 5762 5759 5748 5743 5745 5743 5735 5732 5727 5723 5720 5716 5710 5704 5701 5699 5697 5693 5687 5682 5677 5673 5669 5664 5660 5655 5650 5643 5639 5635
5763 5773 5768 5765 5764 5769 5770 5774 5780 5740 5751 5773 5770 5763 5757 5746 5741 5738 5734 5727 5724 5719 5712 5711 5708 5703 5699 5696 5690 5685 5681 5676 5673 5669 5665 5662 5658 5654 5650 5646 5641 5638 5631 5628
5760 5757 5759 5765 5750 5743 5765 5760 5750 5753 5758 5763 5758 5752 5743 5736 5731 5726 5720 5714 5709 5703 5699 5696 5693 5688 5685 5681 5676 5670 5666 5662 5659 5655 5652 5650 5650 5647 5643 5639 5633 5627 5626 5622
5746 5763 5765 5751 5757 5750 5755 5752 5750 5752 5749 5748 5745 5741 5735 5727 5721 5715 5706 5700 5695 5690 5686 5683 5679 5675 5671 5667 5662 5657 5652 5647 5643 5641 5642 5642 5642 5640 5636 5629 5627 5623 5620 5614
5735 5747 5750 5742 5732 5735 5738 5738 5741 5743 5741 5741 5735 5729 5725 5714 5708 5699 5693 5686 5680 5676 5671 5668 5664 5658 5653 5648 5644 5639 5635 5630 5627 5627 5630 5633 5632 5631 5630 5626 5620 5613 5609 5604
5740 5737 5734 5721 5723 5725 5726 5729 5728 5725 5724 5719 5716 5711 5704 5698 5689 5684 5675 5669 5665 5661 5654 5649 5639 5634 5631 5627 5627 5625 5622 5617 5617 5619 5622 5624 5624 5626 5627 5623 5620 5611 5604 5597
5732 5726 5730 5729 5726 5727 5714 5714 5716 5710 5706 5703 5697 5689 5686 5682 5673 5669 5661 5654 5646 5640 5635 5633 5629 5625 5622 5619 5616 5614 5609 5606 5608 5611 5617 5619 5620 5625 5622 5617 5616 5610 5601 5597